www.pogodaiklimat.ru

Погода и климат >> Архив погоды >> Россия >> Волгоградская область >> Михайловка


ПОГОДА в Михайловке

  • Прогноз погоды в Михайловке
  • Монитор погоды в Михайловке

АРХИВ ПОГОДЫ в Михайловке

Время (UTC), дата Ветер
(напр.,м/с)
 
Видим.   Явления Облачность Т
(С)
Тd
(С)
f
(%)
Тe
(С)
Тes
(С)
Комфортность P
(гПа)
Po
(гПа)
Тmin
(С)
Tmax
(С)
R
(мм)
R24
(мм)
S
(см)
00 13.08 штиль 0 20 км ясно +9.8 +6.6 80 +9 +9 1018.9 1008.8
03 13.08 штиль 0 20 км 6/0
[Ci sp]
+10.4 +8.1 86 +10 +10 1019.6 1009.4 +7.6
06 13.08 СЗ 2 20 км ясно +20.1 +6.6 41 +22 +30 комфорт 1019.4 1009.6
09 13.08 СЗ 4 20 км 4/4 600 м
[Cu hum]
+23.8 +9.1 39 +25 +30 комфорт 1018.4 1008.7
12 13.08 СЗ 3 20 км 6/6 600 м
[Cu hum]
+25.9 +9.2 35 +26 +29 жарко 1017.5 1007.9
15 13.08 СЗ 2 20 км 6/0
[Ac trans]
+25.4 +9.0 35 +26 +26 жарко 1016.8 1007.2 +26.0
18 13.08 штиль 0 20 км 6/0
[Ci fib]
+17.2 +11.9 71 +17 +17 1017.5 1007.6
21 13.08 штиль 0 20 км ясно +13.4 +11.4 88 +13 +13 1017.8 1007.8
00 14.08 Ю 1 20 км 8/0
[Ac trans]
+12.0 +10.6 91 +12 +12 1017.5 1007.4
03 14.08 Ю 1 20 км ясно +13.4 +10.8 84 +14 +14 1017.6 1007.5 +11.6
06 14.08 Ю 2 20 км ясно +23.4 +12.7 51 +26 +35 жарко 1016.6 1006.9
09 14.08 З 4 20 км ясно +30.3 +11.9 32 +31 +41 жарко 1014.8 1005.3
12 14.08 З 5 20 км 6/0
[Ci fib]
+31.9 +12.1 30 +32 +36 жарко 1013.6 1004.2
15 14.08 З 3 20 км 6/0
[Ci fib]
+30.9 +12.8 33 +32 +32 жарко 1013.2 1003.8 +32.4
18 14.08 ЮЗ 2 20 км ясно +25.2 +14.4 51 +28 +28 жарко 1014.0 1004.4
21 14.08 Ю 1 20 км ясно +19.4 +15.4 78 +22 +22 комфорт 1014.0 1004.2
00 15.08 штиль 0 20 км ясно +18.6 +15.0 80 +19 +19 1014.2 1004.4
03 15.08 штиль 0 20 км ясно +18.3 +15.8 85 +19 +19 1014.8 1005.0 +17.0
06 15.08 З 2 20 км ясно +29.3 +13.7 38 +31 +39 жарко 1014.6 1005.1
09 15.08 ЮВ 1 20 км ясно +32.4 +14.0 33 +34 +50 очень
жарко
1013.8 1004.4
12 15.08 В 2 20 км 6/6 600 м
[Cu hum]
+33.3 +14.1 31 +34 +38 очень
жарко
1012.4 1003.1
15 15.08 СВ 1 20 км 6/6 600 м
[Cu hum]
+33.5 +14.9 33 +35 +36 душно 1011.1 1001.8 +34.8
18 15.08 В 2 20 км ясно +28.2 +15.2 45 +31 +31 душно 1012.1 1002.6
21 15.08 В 1 20 км 6/0
[Ac trans]
+25.9 +13.4 46 +28 +28 жарко 1012.5 1002.9
00 16.08 СВ 1 20 км 6/0
[Ci fib]
+21.6 +13.3 59 +24 +24 комфорт 1012.1 1002.4
03 16.08 штиль 0 20 км 6/0
[Ac trans]
+18.7 +14.3 76 +19 +20 1012.4 1002.6 +17.6
06 16.08 Ю 1 20 км 6/0
[Ac trans]
+27.2 +10.5 35 +28 +34 жарко 1011.7 1002.2
09 16.08 ЮВ 3 20 км 10/0
[Ac und]
+30.2 +9.2 27 +30 +33 жарко 1010.7 1001.3
12 16.08 ЮВ 3 20 км 8/0
[Ac trans]
+30.8 +9.7 27 +30 +34 жарко 1009.7 1000.3
15 16.08 ЮВ 1 20 км 10/0
[Ac und]
+29.2 +8.8 28 +29 +29 жарко 1009.3 999.8 +31.5
18 16.08 В 2 20 км 10/0
[Ac und]
+26.9 +9.2 33 +27 +27 жарко 1009.3 999.8
21 16.08 ЮВ 3 20 км 10/0
[Ac und]
+26.6 +9.4 34 +27 +27 жарко 1008.7 999.2
00 17.08 ЮВ 2 20 км 10/0
[Ac und]
+25.3 +6.8 31 +25 +25 комфорт 1009.8 1000.2
03 17.08 ЮВ 2 20 км 10/0
[]
+22.4 +7.8 39 +23 +24 комфорт 1009.7 1000.0 +22.4
06 17.08 ЮВ 1 20 км 10/0
[Ac und]
+23.5 +10.6 44 +25 +28 комфорт 1010.6 1001.0
09 17.08 В 3 20 км 8/0
[Ac As]
+28.4 +7.9 28 +28 +33 жарко 1009.3 999.8
12 17.08 Ю 2 20 км 8/0
[Ac As]
+28.3 +5.8 24 +27 +31 жарко 1008.8 999.4
15 17.08 З 1 20 км 8/0
[Ac trans]
+25.9 +11.9 42 +27 +28 жарко 1008.3 998.8 +30.2
18 17.08 штиль 0 20 км 6/0
[Ac trans]
+20.8 +14.3 66 +23 +23 комфорт 1009.0 999.3
21 17.08 штиль 0 20 км ясно +17.7 +13.7 77 +18 +18 1009.5 999.7
00 18.08 штиль 0 20 км ясно +16.0 +12.8 81 +16 +16 1010.5 1000.6
03 18.08 штиль 0 20 км ясно +16.5 +12.8 79 +16 +17 1011.0 1001.2 +15.0
06 18.08 штиль 0 20 км ясно +26.0 +13.7 47 +28 +39 жарко 1011.2 1001.6
09 18.08 ЮВ 2 20 км 8/0
[Ac trans]
+30.0 +15.8 42 +33 +40 душно 1010.7 1001.3
12 18.08 ЮВ 2 20 км 10/0
[Ac und]
+31.5 +5.9 20 +30 +32 жарко 1010.4 1001.0
15 18.08 З 2 20 км 10/0
[Ac und]
+26.7 +17.7 58 +31 +31 душно 1011.6 1002.1 +32.5
18 18.08 штиль 0 20 км 10/0
[Ac und]
+23.3 +17.7 71 +29 +29 душно 1012.8 1003.2
21 18.08 С 1 20 км 10/0
[Ac und]
+20.1 +14.8 72 +24 +24 комфорт 1013.5 1003.8
00 19.08 штиль 0 20 км 6/0
[Ac trans]
+17.5 +13.7 78 +17 +17 1013.9 1004.1
03 19.08 штиль 0 20 км 6/0
[Ac trans]
+16.8 +12.4 75 +17 +17 1015.2 1005.3 +15.8
06 19.08 ЮЗ 2 20 км ясно +27.3 +10.2 34 +28 +35 жарко 1015.1 1005.5
09 19.08 ЮВ 1 20 км 6/0
[Ac As]
+32.9 +7.8 21 +31 +41 жарко 1015.0 1005.7
12 19.08 З 2 20 км 8/0
[Ac As]
+33.8 +6.0 18 +32 +35 жарко 1015.6 1006.3
15 19.08 С 2 20 км 6/0
[Ac trans]
+30.7 +12.7 33 +32 +32 жарко 1015.8 1006.4 +34.8
18 19.08 С 1 20 км ясно +22.6 +13.8 58 +26 +26 жарко 1016.9 1007.2
21 19.08 С 2 20 км ясно +22.0 +15.1 65 +26 +26 душно 1017.0 1007.3

 

Местоположение метеостанции Михайловка (Волгоградская область, Россия): широта 50.08 долгота 43.27 высота над уровнем моря 82 м.

В архиве по умолчанию представлена погода в Михайловке за последнюю неделю. Архивные данные за месяц целиком и за предыдущие месяцы, начиная с января 2011 года, Вы можете получить, выбрав интересующий диапазон дат из раскрывающегося списка и нажав кнопку "Ввод!".


*Определитесь, кто Вы:
робот инопланетянин человек

Внимание! Время в таблицах - всемирное. Для получения местного времени необходимо прибавить поправку, которая равна 3 ч.

Смотрите также архив погоды в соседних городах и на ближайших метеорологических станциях:

Погода в Фролове (Волгоградская область, Россия) (42 км)
Погода в Новоаннинском (Волгоградская область, Россия) (65 км)
Погода в Даниловке (Волгоградская область, Россия) (69 км)
Погода в Серафимовиче (Волгоградская область, Россия) (69 км)
Погода в Ольховке (Волгоградская область, Россия) (94 км)
Погода в Иловле (Волгоградская область, Россия) (101 км)
Погода в Елани (Волгоградская область, Россия) (102 км)
Погода в Урюпинске (Волгоградская область, Россия) (120 км)
Погода в Рудне (Волгоградская область, Россия) (124 км)
Погода в Боковской (Ростовская область, Россия) (141 км)

Пояснения к столбцам:

Ветер - указаны скорость ветра в м/с - средняя за 10 мин, порывы в срок и между сроками (в фигурных скобках) и направление, откуда дует ветер: С - северный, СВ - северо-восточный, В - восточный, ЮВ - юго-восточный, Ю - южный, ЮЗ - юго-западный, З - западный, СЗ - северо-западный.
Видимость - горизонтальная дальность видимости в метрах или километрах. При видимости от 1 до 10 км при отсутствии осадков обычно наблюдается дымка, при ухудшении видимости до 1 км и менее - туман. В сухую погоду видимость может ухудшаться дымом, пылью или мглою.
Явления - указаны атмосферные явления, наблюдавшиеся в срок или в последний час перед сроком; фигурными скобками обозначены явления, наблюдавшиеся между сроками (за 1-3 часа до срока); квадратными скобками обозначены град или гололедные отложения с указанием их диаметра в мм.
Облачность - указаны через наклонную черту общая и нижняя облачность в баллах и высота нижней границы облаков в метрах; квадратными скобками обозначены формы облаков: Ci - перистые, Cs - перисто-слоистые, Cc - перисто-кучевые, Ac - высококучевые, As - высокослоистые, Sc - слоисто-кучевые, Ns - слоисто-дождевые, Cu - кучевые, Cb - кучево-дождевые. Подробнее классификацию облаков см. в Атласе облаков (PDF).
T - Температура воздуха - температура, измеренная на высоте 2 м над землей.
Td - Температура точки росы - температура, при понижении до которой содержащийся в воздухе водяной пар достигнет насыщения.
f - Относительная влажность воздуха - влажноcть воздуха, измеренная на высоте 2 м над землей.
Te - Эффективная температура - температура, которую ощущает одетый по сезону человек в тени. Характеристика душности погоды. При расчете учитывается влияние влажности воздуха и скорости ветра на теплоощущения человека.
Tes - Эффективная температура на солнце - температура, которую ощущает человек, с поправкой на солнечный нагрев. Характеристика знойности погоды. Зависит от высоты солнца над горизонтом, облачности и скорости ветра. Ночью, в пасмурную погоду, а также при ветре 12 м/с и более поправка равна нулю.
P - Атмосферное давление - приведенное к уровню моря атмосферное давление.
Po - Атмосферное давление - измеренное на уровне метеостанции атмосферное давление.
Tmin - Минимальная температура - минимум температуры воздуха на высоте 2 м над землей.
Tmax - Максимальная температура - максимум температуры воздуха на высоте 2 м над землей.
R - Количество осадков - Количество выпавших осадков за период времени, мм. При наведении курсора мыши на число - период времени, за который выпало указанное количество осадков.
R24 - Количество осадков - Количество выпавших осадков за 24 часа, мм.
S - Снежный покров - Высота снежного покрова, см. При наведении курсора мыши на число - состояние снежного покрова и степень покрытия местности в баллах.